Facebook Twitter

Wetterstation Kufstein

aktuelles Wetter
  Temperatur Wetter Niederschlag Luftdruck Wind
Mo, 23:00 Uhr 19° - 0 mm 1015 hPa 7 km/h O
Mo, 22:00 Uhr 20° - 0 mm 1015 hPa 4 km/h NO
Mo, 21:00 Uhr 21° - 0 mm 1014 hPa 7 km/h O
Mo, 20:00 Uhr 24° - 0 mm 1013 hPa 7 km/h NO
Mo, 19:00 Uhr 24° - 0 mm 1013 hPa 7 km/h O
Mo, 18:00 Uhr 25° - 0 mm 1013 hPa 7 km/h NO
Mo, 17:00 Uhr 25° - 0 mm 1013 hPa 11 km/h NO
Mo, 16:00 Uhr 25° - 0 mm 1013 hPa 7 km/h NO
Mo, 15:00 Uhr 24° - 0 mm 1014 hPa 11 km/h NO
Mo, 14:00 Uhr 25° - 0 mm 1014 hPa 11 km/h NO
Mo, 13:00 Uhr 24° - 0 mm 1015 hPa 11 km/h O
Mo, 12:00 Uhr 22° - 0 mm 1016 hPa 11 km/h O
Mo, 11:00 Uhr 21° - 0 mm 1016 hPa 11 km/h O
Mo, 10:00 Uhr 21° - 0 mm 1017 hPa 4 km/h O
Mo, 09:00 Uhr 19° - 0 mm 1017 hPa 4 km/h O
Mo, 08:00 Uhr 17° - 0 mm 1018 hPa 4 km/h S
Mo, 07:00 Uhr 14° 0 mm 1018 hPa 0 km/h S
Mo, 06:00 Uhr 14° - 0 mm 1019 hPa 4 km/h NO
Mo, 05:00 Uhr 13° - 0 mm 1019 hPa 0 km/h NO
Mo, 02:00 Uhr 16° - 0 mm 1018 hPa 0 km/h NO

Alle Zeitangaben MESZ